Probability
12 11 8 7 6 6 5 5 6 6 7 9 9 9 11 10 7 5 4 3 4 5 5 4 2 1 0 0 0 0 0 0 0 0 0 0 0 0 0 0 0 0 0
12 11 8 7 6 6 6 5 5 5 7 8 8 7 7 6 5 4 3 3 3 4 3 2 1 0 0 0 0 0 0 0 0 0 0 0 0 0 0 0 0 0 0
11 10 8 6 6 6 6 5 4 4 5 6 7 7 5 4 3 3 3 3 3 3 2 1 0 0 1 1 1 1 1 1 0 0 0 0 0 0 0 0 0 0 0
11 9 7 5 4 5 4 4 3 3 2 4 6 7 7 6 4 4 3 3 2 1 1 0 0 0 1 2 2 2 2 2 1 0 0 0 0 0 0 0 0 0 0
9 7 5 3 3 4 3 3 3 2 2 3 4 5 6 6 5 4 3 1 1 0 0 0 0 0 1 2 3 3 3 3 2 1 0 0 0 0 0 0 0 0 0
6 4 2 1 2 3 3 3 3 2 2 2 3 3 4 4 4 3 1 0 0 0 0 0 0 0 0 1 2 3 3 3 3 1 0 0 0 0 0 0 0 0 0
4 2 0 0 1 2 2 2 2 1 1 1 2 2 2 2 2 1 0 0 0 0 0 0 0 0 0 0 1 2 2 3 3 2 1 0 0 0 0 0 0 0 0
3 2 0 0 0 1 1 1 1 0 0 0 1 1 1 1 0 0 0 0 0 0 0 0 0 0 0 0 0 1 1 1 2 2 1 0 0 0 0 0 0 0 0
1 1 0 0 0 0 0 0 0 0 0 0 0 0 0 0 0 0 0 0 0 0 0 0 0 0 0 0 0 0 0 0 1 1 0 0 0 0 0 0 0 0 0
0 0 0 0 0 0 0 0 0 0 0 0 0 0 0 0 0 0 0 0 0 0 0 0 0 0 0 0 0 0 0 0 0 0 0 0 0 0 0 0 0 0 0
0 0 0 0 0 0 0 0 0 0 0 0 0 0 0 0 0 0 0 0 0 0 0 0 0 0 0 0 0 0 0 0 0 0 0 0 0 0 0 0 0 0 0
0 0 0 0 0 0 0 0 0 0 0 0 0 0 0 0 0 0 0 0 0 0 0 0 0 0 0 0 0 0 0 0 0 0 0 0 0 0 0 0 0 0 0
0 0 0 0 0 0 0 0 0 0 0 0 0 0 0 0 0 0 0 0 0 0 0 0 0 0 0 0 0 0 0 0 0 0 0 0 0 0 0 0 0 0 0
0 0 0 0 0 0 0 0 0 0 0 0 0 0 0 0 0 0 0 0 0 0 0 0 0 0 0 0 0 0 0 0 0 0 0 0 0 0 0 0 0 0 0
0 0 0 0 0 0 0 0 0 0 0 0 0 0 0 0 0 0 0 0 0 0 0 0 0 0 0 0 0 0 0 0 0 0 0 0 0 0 0 0 0 0 0
0 0 0 0 0 0 0 0 0 0 0 0 0 0 0 0 0 0 0 0 0 0 0 0 0 0 0 0 0 0 0 0 0 0 0 0 0 0 0 0 0 0 0
0 0 0 0 0 0 0 0 0 0 0 0 0 0 0 0 0 0 0 0 0 0 0 0 0 0 0 0 0 0 0 0 0 0 0 0 0 0 0 0 0 0 0
0 0 0 0 0 0 0 0 0 0 0 0 0 0 0 0 0 0 0 0 0 0 0 0 0 0 0 0 0 0 0 0 0 0 0 0 0 0 0 0 0 0 0
0 0 0 0 0 0 0 0 0 0 0 0 0 0 0 0 0 0 0 0 0 0 0 0 0 0 0 0 0 0 0 0 0 0 0 0 0 0 0 0 0 0 0
0 0 0 0 0 0 0 0 0 0 0 0 0 0 0 0 0 0 0 0 0 0 0 0 0 0 0 0 0 0 0 0 0 0 0 0 0 0 0 0 0 0 0
0 0 0 0 0 0 0 0 0 0 0 0 0 0 0 0 0 0 0 0 0 0 0 0 0 0 0 0 0 0 0 0 0 0 0 0 0 0 0 0 0 0 0
0 0 0 0 0 0 0 0 0 0 0 0 0 0 0 0 0 0 0 0 0 0 0 0 0 0 0 0 0 0 0 0 0 0 0 0 0 0 0 0 0 0 0
0 0 0 0 0 0 0 0 0 0 0 0 0 0 0 0 0 0 0 0 0 0 0 0 0 0 0 0 0 0 0 0 0 0 0 0 0 0 0 0 0 0 0
0 0 0 0 0 0 0 0 0 0 0 0 0 0 0 0 0 0 0 0 0 0 0 0 0 0 0 0 0 0 0 0 0 0 0 0 0 0 0 0 0 0 0
0 0 0 0 0 0 0 0 0 0 0 0 0 0 0 0 0 0 0 0 0 0 0 0 0 0 0 0 0 0 0 0 0 0 0 0 0 0 0 0 0 0 0
0 0 0 0 0 0 0 0 0 0 0 0 0 0 0 0 0 0 0 0 0 0 0 0 0 0 0 0 0 0 0 0 0 0 0 0 0 0 0 0 0 0 0
Wind_Speed
8 7 7 6 7 7 7 7 6 5 3 2 2 2 2 2 3 3 4 4 4 3 3 2 2 2 1 0 0 0 1 1 2 2 2 2 3 3 2 2 2 2 2
8 7 7 6 7 6 7 7 6 5 4 3 1 1 2 2 2 3 4 5 4 4 3 3 2 2 2 2 1 0 1 1 1 2 2 1 1 3 3 2 2 2 2
9 8 7 7 7 7 7 6 7 6 5 4 3 3 3 3 3 3 3 4 5 4 4 3 3 2 2 1 1 1 1 1 1 1 2 2 2 1 2 3 4 3 3
9 8 7 7 7 7 6 7 7 7 6 5 4 4 3 2 2 2 2 4 5 5 5 4 4 3 2 2 2 2 0 1 1 1 0 1 3 3 2 2 3 5 5
10 9 8 8 7 7 6 6 7 7 7 6 5 5 4 3 2 3 4 4 5 6 6 5 4 4 3 2 2 2 1 0 1 1 1 1 1 2 3 3 2 4 4
11 10 9 8 7 7 6 6 7 7 7 7 6 6 5 5 5 4 4 3 3 4 6 5 5 4 4 3 2 2 2 1 1 1 1 2 2 2 3 4 3 3 3
10 10 9 8 7 7 6 6 6 6 6 7 7 6 6 5 5 4 4 3 3 3 5 5 5 4 4 4 3 3 2 2 2 2 1 1 1 2 3 5 4 3 2
10 9 8 7 7 6 5 5 5 5 5 6 6 6 5 4 4 4 3 3 3 3 4 5 5 5 5 5 4 3 3 3 3 3 2 2 2 2 3 4 5 5 3
10 10 8 7 6 6 5 4 5 5 5 5 5 5 5 5 4 4 4 3 3 3 5 5 5 6 6 6 5 4 4 4 4 4 3 3 2 3 3 3 4 5 5
10 9 7 6 5 5 4 5 5 4 4 5 5 4 5 5 4 4 5 5 4 4 5 5 6 6 7 7 6 5 5 6 5 4 5 4 3 3 3 3 3 3 4
10 8 7 6 5 5 4 4 4 4 4 5 5 5 5 5 5 5 5 5 5 5 5 6 6 7 7 7 6 7 7 7 7 6 6 5 5 4 4 3 4 4 4
10 9 7 6 5 5 4 4 4 4 3 4 4 5 4 5 5 5 5 5 6 6 6 7 7 7 8 7 7 7 8 8 8 7 7 6 5 6 4 4 5 4 4
10 9 7 6 5 4 4 4 3 3 3 4 4 5 5 5 5 5 6 6 7 7 7 8 8 7 7 7 7 7 7 8 7 7 7 6 7 7 5 5 5 5 5
9 9 7 6 5 4 4 4 3 3 4 4 5 5 4 5 5 5 6 6 7 7 7 8 8 7 7 7 7 7 7 8 8 8 7 6 6 6 6 6 6 6 6
10 9 8 6 5 4 4 3 3 3 4 4 4 4 4 5 6 6 6 6 7 8 7 8 8 8 7 7 6 7 7 7 8 8 8 8 9 9 6 6 5 6 5
11 10 9 8 6 5 4 3 3 3 4 4 3 3 4 5 5 5 6 6 6 7 7 8 8 8 7 10 11 8 7 7 7 7 6 7 9 10 11 10 8 7 6
11 10 9 8 6 5 4 4 3 3 4 4 4 4 4 5 5 6 6 6 5 6 7 6 7 7 8 12 11 11 7 7 7 6 6 6 7 8 7 9 11 8 7
11 9 8 7 5 4 4 3 4 4 5 4 4 4 4 5 5 5 5 4 4 5 5 5 6 6 8 11 10 10 8 7 7 6 6 6 7 6 6 7 8 7 5
9 8 7 6 5 5 4 5 4 5 4 4 4 4 4 4 4 4 4 3 3 4 4 4 5 6 7 10 10 8 6 6 7 6 6 6 6 8 9 8 7 6 5
8 8 7 6 6 5 5 6 5 4 4 3 3 4 4 4 4 3 3 2 3 3 3 4 4 5 5 8 9 7 4 5 4 4 6 8 7 8 8 6 5 5 3
9 8 8 6 5 5 6 6 4 4 3 4 4 4 3 3 3 2 2 3 3 3 3 4 4 4 5 7 8 7 4 3 3 3 3 4 7 8 7 5 3 1 1
9 8 7 5 4 5 6 5 4 3 4 4 4 3 2 2 3 3 2 2 3 3 2 2 3 3 4 5 7 8 7 5 4 2 2 3 5 6 6 3 3 4 4
8 6 7 6 4 4 6 6 4 4 4 4 3 2 2 2 3 3 2 1 1 1 1 1 1 2 3 4 7 9 8 7 3 1 3 4 5 5 4 4 4 4 3
7 6 7 6 4 4 5 5 4 4 5 4 3 2 3 3 3 2 2 2 2 2 2 2 1 0 2 2 3 3 3 5 4 3 5 6 6 4 3 4 3 2 1
6 6 7 6 5 5 5 5 5 5 4 3 2 2 3 3 3 2 2 2 1 2 3 3 3 3 1 1 0 1 2 2 2 3 3 4 4 4 3 3 2 2 2
6 7 6 6 5 5 5 5 5 6 5 3 2 2 2 2 2 2 2 3 1 1 2 4 5 2 3 3 1 2 2 2 3 3 2 2 2 2 1 1 2 1 1
Wind_Direction
113 100 89 81 74 63 61 49 43 32 34 46 66 81 78 67 54 48 42 37 29 30 42 31 17 14 26 329 298 174 151 154 144 112 84 58 55 63 63 69 92 105 124
116 105 96 81 70 62 59 53 41 30 27 32 42 80 89 76 66 43 36 31 30 26 39 38 22 10 9 10 9 98 184 186 161 136 137 140 57 34 38 55 81 78 83
121 111 96 82 71 59 52 50 38 31 25 30 52 70 63 56 46 38 28 23 32 33 35 34 30 13 14 360 348 350 199 203 180 152 161 161 170 116 36 38 54 63 70
116 105 92 81 70 62 55 49 41 35 28 35 59 75 86 83 60 56 40 27 30 29 27 28 28 23 18 10 356 4 318 184 178 177 134 135 143 147 127 46 43 51 54
118 106 97 89 75 63 55 49 46 40 34 41 52 69 71 72 70 67 54 37 28 28 25 26 24 21 17 15 17 11 14 298 168 155 142 109 88 105 132 130 84 56 41
113 104 94 84 74 63 54 49 49 43 37 43 49 64 72 72 73 63 53 38 26 22 21 24 22 19 17 16 14 20 32 32 82 99 111 135 144 147 131 132 120 93 53
114 109 100 89 80 69 60 56 56 49 42 47 48 53 60 64 67 64 57 49 35 24 13 19 18 17 16 20 22 31 30 40 66 75 84 92 107 128 126 125 125 111 88
116 109 104 99 92 83 74 67 63 56 47 51 50 48 52 58 58 55 54 47 39 24 14 21 24 22 23 27 27 33 29 47 60 62 69 79 78 94 121 133 134 121 98
115 111 109 103 98 89 80 76 71 60 52 56 59 53 49 55 55 49 46 41 31 32 31 32 31 27 28 30 31 40 38 49 57 57 63 68 71 76 82 103 126 135 136
118 114 110 109 102 94 82 74 73 66 54 53 55 60 49 47 48 50 45 41 30 30 32 34 35 33 33 34 39 42 42 53 51 59 66 66 69 77 79 91 92 104 124
124 121 117 113 105 93 86 83 76 67 57 55 57 56 48 45 46 48 45 44 39 37 41 39 40 40 37 34 43 47 47 53 51 50 61 65 70 74 69 78 86 92 105
132 128 124 118 109 100 95 89 82 74 65 62 63 59 51 47 46 44 43 49 50 49 50 48 46 45 41 37 44 49 49 52 53 51 59 60 71 71 69 76 81 89 98
130 124 121 119 115 108 104 96 85 86 77 69 64 56 48 49 49 47 47 52 54 53 51 50 46 40 37 39 44 51 52 54 53 52 60 61 71 70 73 80 85 91 95
130 129 126 124 119 113 110 105 93 95 92 78 68 59 50 51 54 54 53 53 57 58 53 51 45 40 37 38 44 53 53 54 51 50 54 57 67 77 83 85 87 95 95
140 139 137 130 124 118 113 110 105 99 100 93 76 63 59 60 60 58 57 58 60 62 57 52 43 36 38 36 47 56 60 57 54 49 49 56 67 73 82 98 97 99 98
147 145 141 137 134 132 127 123 118 112 109 103 93 77 70 67 66 65 64 64 60 58 57 52 48 41 35 40 53 62 58 55 55 51 45 52 53 62 71 84 94 107 116
150 149 147 145 143 143 140 140 136 120 111 105 100 90 83 78 72 77 69 65 61 62 58 49 48 42 30 42 54 62 65 60 55 53 50 55 50 52 63 66 66 70 95
148 146 144 142 142 143 139 130 120 115 113 108 103 96 91 86 79 74 70 66 63 63 58 49 46 45 30 41 58 66 64 61 53 52 56 60 47 51 71 74 67 57 52
142 142 142 141 140 140 135 119 111 113 115 115 115 110 106 97 88 82 72 66 69 61 54 50 49 47 26 37 61 72 66 62 48 42 46 57 56 56 75 77 73 60 37
131 132 131 127 131 136 128 118 117 116 122 130 126 115 113 107 100 94 79 70 81 76 69 53 42 46 35 39 62 74 74 67 48 35 32 43 60 61 70 76 76 64 23
132 133 133 134 141 138 126 124 130 139 148 133 116 113 118 122 115 91 77 88 85 73 61 50 30 30 30 37 55 71 80 88 64 42 22 13 42 55 61 74 80 74 42
135 136 134 137 140 138 131 130 145 155 135 121 115 116 125 133 110 99 83 80 90 89 70 46 18 7 11 29 45 63 74 91 81 44 358 349 19 32 38 48 40 53 65
139 136 138 137 137 139 137 140 157 145 125 117 119 120 108 96 100 108 104 79 84 110 126 113 50 350 358 12 37 53 61 67 69 7 349 358 8 14 15 17 32 46 58
139 138 138 139 144 146 145 153 152 136 125 125 130 124 107 89 73 76 99 111 113 119 127 143 149 52 7 4 8 20 27 33 30 7 355 5 17 24 4 1 18 38 97
141 143 147 151 156 150 149 156 145 134 130 136 137 118 113 115 96 75 70 111 170 191 166 172 168 155 171 261 156 89 40 18 357 359 10 13 9 7 3 360 359 15 39
145 146 150 153 157 154 157 162 152 144 141 143 150 144 139 136 130 116 49 21 62 72 125 161 162 176 191 190 143 47 21 357 12 51 21 352 341 326 320 332 339 343 346